WX8ASH Weather Reports


Display with metric or nautical units.
time (UTC)temp
F
wind
direction
speed
MPH
gust
MPH
rain 1hr
in
rain 24hr
in
rain mn
in
humidity
%
barometer
mb
20260903064050 80 0 0.0 0.0 0.00 0.00 0.00 78 975.9
20260903062054 81 0 0.0 0.0 0.00 0.00 0.00 77 976.0
20260903061050 81 0 0.0 0.0 0.00 0.00 0.00 76 976.1
20260903060031 81 0 0.0 0.0 0.00 0.00 0.00 76 976.1
20260903055050 81 0 0.0 0.0 0.00 0.00 0.00 75 976.1
20260903054052 81 0 0.0 0.0 0.00 0.00 0.00 75 976.0
20260903053055 82 0 0.0 0.0 0.00 0.00 0.00 74 976.0
20260903052049 82 0 0.0 0.0 0.00 0.00 0.00 74 976.0
20260903051054 82 0 0.0 0.0 0.00 0.00 0.00 74 975.8
20260903050028 81 0 0.0 0.0 0.00 0.00 0.00 74 975.7
20260903045048 81 0 0.0 0.0 0.00 0.00 0.00 75 975.8
20260903044048 81 0 0.0 0.0 0.00 0.00 0.00 76 975.6
20260903043053 80 0 0.0 0.0 0.00 0.00 0.00 77 975.5
20260903042049 80 0 0.0 0.0 0.00 0.00 0.00 79 975.5
20260903041046 80 0 0.0 0.0 0.00 0.00 0.00 79 975.4
20260903040029 80 0 0.0 0.0 0.00 0.01 0.00 79 975.3
20260903034051 80 0 0.0 0.0 0.00 0.01 0.00 79 975.0
20260903033053 80 0 0.0 0.0 0.00 0.01 0.00 78 975.1
20260903032052 80 0 0.0 0.0 0.00 0.01 0.00 78 975.3
20260903031050 80 0 0.0 0.0 0.00 0.01 0.00 78 975.5
20260903030031 80 0 0.0 0.0 0.00 0.01 0.00 78 975.6
20260903025050 80 0 0.0 0.0 0.00 0.01 0.00 78 975.9
20260903024045 80 0 0.0 0.0 0.00 0.01 0.00 77 975.9
20260903023052 80 0 0.0 0.0 0.00 0.01 0.00 77 976.1
20260903022054 81 0 0.0 0.0 0.00 0.01 0.00 76 976.0
20260903021053 81 0 0.0 0.0 0.00 0.01 0.00 76 976.0
20260903020032 81 0 0.0 0.0 0.00 0.01 0.00 75 976.1
20260903015050 81 0 0.0 0.0 0.00 0.01 0.00 75 976.1
20260903014048 81 0 0.0 0.0 0.00 0.01 0.00 74 976.1
20260903013047 82 0 0.0 0.0 0.00 0.01 0.00 73 976.1
20260903012045 82 0 0.0 0.0 0.00 0.01 0.00 72 976.0
20260903011049 82 0 0.0 0.0 0.00 0.01 0.00 71 976.0
20260903010028 83 0 0.0 0.0 0.00 0.01 0.00 71 975.9
20260903005048 83 0 0.0 0.0 0.00 0.01 0.00 70 975.8
20260903004053 83 0 0.0 0.0 0.00 0.01 0.00 70 975.7
20260903003054 84 0 0.0 0.0 0.00 0.01 0.00 69 975.5
20260903002046 84 0 0.0 0.0 0.00 0.01 0.00 69 975.6
20260903000026 85 0 0.0 0.0 0.00 0.01 0.00 67 975.6
20260902233054 87 0 0.0 0.0 0.00 0.01 0.00 64 975.4
20260902232050 87 0 0.0 0.0 0.00 0.01 0.00 63 975.4
20260902225046 88 0 0.0 0.0 0.00 0.01 0.00 60 975.5
20260902224052 89 0 0.0 0.0 0.00 0.01 0.00 61 975.5
20260902222048 89 0 0.0 0.0 0.00 0.01 0.00 59 975.5
20260902221053 89 0 0.0 0.0 0.00 0.01 0.00 60 975.5
20260902220024 89 0 0.0 0.0 0.00 0.01 0.00 60 975.5
20260902215051 89 0 0.0 0.0 0.00 0.01 0.00 59 975.5
20260902214045 89 0 0.0 0.0 0.00 0.01 0.00 58 975.7
20260902213051 89 0 0.0 0.0 0.00 0.01 0.00 57 975.7
20260902211051 90 0 0.0 0.0 0.00 0.01 0.00 59 975.9
20260902210030 90 0 0.0 0.0 0.00 0.01 0.00 59 976.0
20260902205047 90 0 0.0 0.0 0.00 0.01 0.00 59 976.0
20260902204048 90 0 0.0 0.0 0.00 0.01 0.00 59 976.2
20260902203050 90 0 0.0 0.0 0.00 0.01 0.00 59 976.2
20260902202051 90 0 0.0 0.0 0.00 0.01 0.00 60 976.3
20260902200028 90 0 0.0 0.0 0.00 0.01 0.00 59 976.4
20260902194050 91 0 0.0 0.0 0.00 0.01 0.00 59 976.6
20260902193047 91 0 0.0 0.0 0.00 0.01 0.00 58 976.7
20260902192043 91 0 0.0 0.0 0.00 0.01 0.00 57 976.8
20260902191047 92 0 0.0 0.0 0.00 0.01 0.00 57 976.9
20260902190026 91 0 0.0 0.0 0.00 0.01 0.00 57 976.9
20260902185050 91 0 0.0 0.0 0.00 0.01 0.00 56 977.0
20260902184050 91 0 0.0 0.0 0.00 0.01 0.00 59 977.1
20260902183048 91 0 0.0 0.0 0.00 0.01 0.00 56 977.1
20260902181050 91 0 0.0 0.0 0.00 0.01 0.00 56 977.3
20260902180029 91 0 0.0 0.0 0.00 0.01 0.00 59 977.4
20260902175046 90 0 0.0 0.0 0.00 0.01 0.00 61 977.4
20260902174048 90 0 0.0 0.0 0.00 0.01 0.00 60 977.8
20260902173048 90 0 0.0 0.0 0.00 0.01 0.00 61 978.0
20260902172048 89 0 0.0 0.0 0.00 0.01 0.00 62 978.1
20260902171050 88 0 0.0 0.0 0.00 0.01 0.00 64 978.1
20260902162046 88 0 0.0 0.0 0.00 0.01 0.00 65 978.3
20260902161052 87 0 0.0 0.0 0.00 0.01 0.00 68 978.2
20260902160028 87 0 0.0 0.0 0.00 0.01 0.00 70 978.3
20260902155046 86 0 0.0 0.0 0.00 0.01 0.00 70 978.3
20260902154044 86 0 0.0 0.0 0.00 0.01 0.00 72 978.3
20260902153052 85 0 0.0 0.0 0.00 0.01 0.00 72 978.3
20260902152048 84 0 0.0 0.0 0.00 0.01 0.00 74 978.4
20260902151049 84 0 0.0 0.0 0.00 0.01 0.00 75 978.4
20260902145044 83 0 0.0 0.0 0.00 0.01 0.00 77 978.3
20260902143048 82 0 0.0 0.0 0.00 0.01 0.00 81 978.2
20260902142047 81 0 0.0 0.0 0.00 0.01 0.00 82 978.2
20260902141041 80 0 0.0 0.0 0.00 0.01 0.00 83 978.2
20260902140030 80 0 0.0 0.0 0.00 0.01 0.00 85 978.1
20260902134042 78 0 0.0 0.0 0.00 0.01 0.00 87 978.2
20260902133048 78 0 0.0 0.0 0.00 0.01 0.00 88 978.2
20260902132044 77 0 0.0 0.0 0.00 0.01 0.00 89 978.2
20260902131049 77 0 0.0 0.0 0.00 0.01 0.00 90 978.3
20260902130031 77 0 0.0 0.0 0.00 0.01 0.00 91 978.2
20260902125051 76 0 0.0 0.0 0.00 0.01 0.00 93 978.1
20260902124047 75 0 0.0 0.0 0.00 0.01 0.00 95 978.1
20260902122049 73 0 0.0 0.0 0.00 0.01 0.00 95 978.0
20260902121052 73 0 0.0 0.0 0.00 0.01 0.00 95 978.1
20260902120031 72 0 0.0 0.0 0.00 0.01 0.00 95 978.0
20260902115047 72 0 0.0 0.0 0.00 0.01 0.00 95 977.9
20260902114048 72 0 0.0 0.0 0.00 0.01 0.00 95 977.8
20260902113051 72 0 0.0 0.0 0.00 0.01 0.00 95 977.7
20260902112052 72 0 0.0 0.0 0.00 0.01 0.00 94 977.5
20260902110031 72 0 0.0 0.0 0.00 0.01 0.00 94 977.3
20260902105052 73 0 0.0 0.0 0.00 0.01 0.00 94 977.2
20260902104051 73 0 0.0 0.0 0.00 0.01 0.00 94 977.3
20260902103053 73 0 0.0 0.0 0.00 0.01 0.00 94 977.2
20260902102047 73 0 0.0 0.0 0.00 0.01 0.00 94 977.1
20260902101049 73 0 0.0 0.0 0.00 0.01 0.00 94 977.1
20260902095047 73 0 0.0 0.0 0.00 0.01 0.00 92 977.1
20260902094047 73 0 0.0 0.0 0.00 0.01 0.00 92 977.1
20260902093050 74 0 0.0 0.0 0.00 0.01 0.00 92 977.2
20260902092050 74 0 0.0 0.0 0.00 0.01 0.00 91 977.2
20260902090031 75 0 0.0 0.0 0.00 0.01 0.00 90 977.3
20260902085053 75 0 0.0 0.0 0.00 0.01 0.00 90 977.3
20260902084049 75 0 0.0 0.0 0.00 0.01 0.00 90 977.3
20260902083053 75 0 0.0 0.0 0.00 0.01 0.00 90 977.2
20260902082048 75 0 0.0 0.0 0.00 0.01 0.00 91 977.2
20260902081053 75 0 0.0 0.0 0.00 0.01 0.00 91 977.2
20260902073054 75 0 0.0 0.0 0.00 0.01 0.00 92 977.0
20260902072052 75 0 0.0 0.0 0.00 0.01 0.00 92 977.1
20260902071101 75 0 0.0 0.0 0.00 0.01 0.00 93 977.1
20260902070034 75 0 0.0 0.0 0.00 0.01 0.00 94 977.2